This is the latest recevied weather packets stored in our database for station/object EA3ANS-1. If no packets are shown the sender has not sent any weather packets the latest 10 day(s).
| Time | Temp. | Humidity | Pressure | Rain* | Wind** | Luminosity | Snow |
|---|---|---|---|---|---|---|---|
| 1787881082 | 26.67° C | - | 1012.8 hPa | 0 mm | 0.45 m/s, 239° | - | - |
| 1787880483 | 26.67° C | - | 1012.9 hPa | 0 mm | 0.89 m/s, 291° | - | - |
| 1787879881 | 26.67° C | - | 1013 hPa | 0 mm | 0 m/s | - | - |
| 1787879281 | 26.67° C | - | 1013.2 hPa | 0 mm | 0 m/s | - | - |
| 1787878676 | 27.22° C | - | 1013.1 hPa | 0 mm | 0.89 m/s, 295° | - | - |
| 1787878079 | 27.22° C | - | 1012.7 hPa | 0 mm | 1.34 m/s, 45° | - | - |
| 1787877475 | 27.22° C | - | 1012.2 hPa | 0 mm | 0.89 m/s, 260° | - | - |
| 1787876878 | 27.22° C | - | 1011.8 hPa | 0 mm | 0 m/s | - | - |
| 1787876276 | 27.78° C | - | 1011.5 hPa | 0 mm | 3.13 m/s, 329° | - | - |
| 1787875679 | 27.78° C | - | 1011.5 hPa | 0 mm | 1.79 m/s, 290° | - | - |
| 1787875082 | 27.78° C | - | 1011.5 hPa | 0 mm | 1.79 m/s, 23° | - | - |
| 1787874475 | 26.67° C | - | 1011.5 hPa | 0 mm | 0.89 m/s, 312° | - | - |
| 1787873873 | 26.67° C | - | 1011.7 hPa | 0 mm | 0 m/s | - | - |
| 1787873276 | 26.67° C | - | 1011.7 hPa | 0 mm | 2.24 m/s, 349° | - | - |
| 1787872678 | 26.67° C | - | 1012.2 hPa | 0 mm | 0.89 m/s, 285° | - | - |
| 1787872077 | 26.67° C | - | 1012.2 hPa | 0 mm | 0.89 m/s, 253° | - | - |
| 1787871480 | 26.67° C | - | 1012.4 hPa | 0 mm | 0 m/s | - | - |
| 1787870882 | 26.11° C | - | 1012.3 hPa | 0 mm | 1.34 m/s, 316° | - | - |
| 1787870270 | 26.67° C | - | 1012.4 hPa | 0 mm | 0.89 m/s, 266° | - | - |
| 1787869670 | 26.67° C | - | 1012.5 hPa | 0 mm | 0.89 m/s, 188° | - | - |
| 1787869068 | 26.67° C | - | 1012 hPa | 0 mm | 2.24 m/s, 152° | - | - |
| 1787868471 | 26.67° C | - | 1011.4 hPa | 0 mm | 0.89 m/s, 176° | - | - |
| 1787867873 | 26.67° C | - | 1011.4 hPa | 0 mm | 1.79 m/s, 207° | - | - |
| 1787867274 | 26.67° C | - | 1011.2 hPa | 0 mm | 1.79 m/s, 240° | - | - |
| 1787866676 | 26.67° C | - | 1010.9 hPa | 0 mm | 0.45 m/s, 148° | - | - |
* Rain latest hour (hover to see other rain measurements)
** Current wind speed in m/s (hover to see current wind gust speed)